Fallon NAS, NV

9:57 PM PST on December 11, 2017 (GMT -0800)
Fallon Naval Air Station

Weather History for KNFL - November, 2012

Change the Weather History Date:

Monday, November 12, 2012

  Actual Average Record
Temperature  
Mean Temperature 35 °F -  
Max Temperature 53 °F 56 °F 72 °F (2016)
Min Temperature 17 °F 27 °F 6 °F (1938)
Degree Days  
Heating Degree Days 30    
Moisture  
Dew Point 14 °F    
Average Humidity 51    
Maximum Humidity 74    
Minimum Humidity 20    
Precipitation  
Precipitation 0.00 in - - ()
Sea Level Pressure  
Sea Level Pressure 30.22 in    
Wind  
Wind Speed 3 mph (SE)    
Max Wind Speed 8 mph    
Max Gust Speed -    
Visibility 10 miles    
Events      
Averages and records for this station are not official NWS values.
T = Trace of Precipitation, MM = Missing Value Source: NWS Daily Summary

Daily Weather History Graph

Daily Weather History Graph

Search for Another Location

Airport or City:

Trip Planner

Search our weather history database for the weather conditions in past years. The results will help you decide how hot, cold, wet, or windy it might be!

Date:

Astronomy

Nov. 12, 2012 Rise Set
Actual Time 6:35 AM PST 4:41 PM PST
Civil Twilight 6:07 AM PST 5:10 PM PST
Nautical Twilight 5:34 AM PST 5:42 PM PST
Astronomical Twilight 5:03 AM PST 6:14 PM PST
Moon 5:07 AM PST 3:50 PM PST
Length of Visible Light 11h 02m
Length of Day
10h 05m
Waning Crescent, 2% of the Moon is Illuminated
Nov 12
Waning Crescent
Nov 13
New
Nov 20
First Quarter
Nov 28
Full
Dec 6
Last Quarter

Hourly Weather History & Observations

Time (PST) Temp. Windchill Dew Point Humidity Pressure Visibility Wind Dir Wind Speed Gust Speed Precip Events Conditions
12:56 AM 21.0 °F 16.2 °F 14.0 °F 74% 30.25 in 10.0 mi WSW 3.5 mph - N/A   Clear
1:56 AM 19.0 °F 13.9 °F 12.0 °F 74% 30.24 in 10.0 mi South 3.5 mph - N/A   Clear
2:56 AM 19.0 °F - 10.9 °F 71% 30.23 in 10.0 mi Calm Calm - N/A   Clear
3:56 AM 17.1 °F - 10.0 °F 74% 30.22 in 10.0 mi Calm Calm - N/A   Clear
4:56 AM 21.0 °F - 12.0 °F 68% 30.25 in 10.0 mi Calm Calm - N/A   Clear
5:56 AM 19.9 °F 14.9 °F 10.9 °F 68% 30.25 in 10.0 mi ESE 3.5 mph - N/A   Clear
6:14 AM 19.4 °F - 10.4 °F 68% 30.37 in 10.0 mi Calm Calm - N/A   Mostly Cloudy
6:56 AM 23.0 °F - 12.9 °F 65% 30.25 in 10.0 mi Calm Calm - N/A   Mostly Cloudy
7:56 AM 28.0 °F - 16.0 °F 61% 30.26 in 10.0 mi Calm Calm - N/A   Mostly Cloudy
8:56 AM 34.0 °F - 16.0 °F 48% 30.26 in 10.0 mi Calm Calm - N/A   Mostly Cloudy
9:56 AM 39.0 °F 36.8 °F 15.1 °F 38% 30.25 in 10.0 mi SSE 3.5 mph - N/A   Mostly Cloudy
10:56 AM 45.0 °F 42.6 °F 10.0 °F 24% 30.23 in 10.0 mi South 4.6 mph - N/A   Scattered Clouds
11:56 AM 48.0 °F - 10.9 °F 22% 30.20 in 10.0 mi Calm Calm - N/A   Mostly Cloudy
12:56 PM 50.0 °F - 10.9 °F 21% 30.19 in 10.0 mi Calm Calm - N/A   Mostly Cloudy
1:56 PM 53.1 °F - 12.9 °F 20% 30.17 in 10.0 mi North 8.1 mph - N/A   Mostly Cloudy
2:56 PM 51.1 °F - 17.1 °F 26% 30.17 in 10.0 mi NE 8.1 mph - N/A   Scattered Clouds
3:56 PM 48.9 °F - 18.0 °F 29% 30.16 in 10.0 mi NE 8.1 mph - N/A   Scattered Clouds
4:56 PM 43.0 °F 39.5 °F 19.0 °F 38% 30.16 in 10.0 mi NE 5.8 mph - N/A   Scattered Clouds
5:56 PM 39.0 °F 34.0 °F 18.0 °F 43% 30.17 in 10.0 mi NE 6.9 mph - N/A   Partly Cloudy
6:56 PM 37.0 °F 32.4 °F 17.1 °F 44% 30.18 in 10.0 mi ENE 5.8 mph - N/A   Partly Cloudy
7:56 PM 33.1 °F 27.7 °F 16.0 °F 50% 30.19 in 10.0 mi WSW 5.8 mph - N/A   Clear
8:56 PM 28.0 °F - 12.9 °F 53% 30.19 in 10.0 mi Calm Calm - N/A   Clear
9:56 PM 28.0 °F 22.8 °F 15.1 °F 58% 30.20 in 10.0 mi SW 4.6 mph - N/A   Clear
10:56 PM 26.1 °F 21.9 °F 15.1 °F 63% 30.19 in 10.0 mi SSE 3.5 mph - N/A   Clear
11:56 PM 28.0 °F 24.2 °F 17.1 °F 63% 30.20 in 10.0 mi SSW 3.5 mph - N/A   Clear